Regional Weather Roundup
Issued by NWS

Home | Current Version | Previous Version | Text Only | Print | Product List | Glossary Off
Versions: 1 2 3 4 5 6 7 8 9 10 11 12 13 14 15 16 17 18 19 20 21 22 23 24 25 26 27 28 29 30 31 32 33 34 35 36 37 38 39 40 41 42 43 44 45 46 47 48 49 50

000
ASUS43 KTOP 211108
RWRKS

WEATHER ROUNDUP FOR KANSAS
NATIONAL WEATHER SERVICE GOODLAND KS
600 AM CDT MON APR 21 2014

NOTE:  "FAIR" INDICATES FEW OR NO CLOUDS BELOW 12,000 FEET WITH NO
SIGNIFICANT WEATHER AND/OR OBSTRUCTIONS TO VISIBILITY.

KSZ001>006-013>018-027>032-041>047-211200-
NORTHWEST KANSAS

CITY           SKY/WX    TMP DP  RH WIND       PRES   REMARKS
GOODLAND       CLEAR     48  41  76 N17       30.11R
HAYS           CLOUDY    55  52  88 N16       30.03R
HILL CITY      PTCLDY    53  51  93 CALM      30.01R
RUSSELL        LGT RAIN  54  52  93 N12       30.00R
$$

KSZ061>065-074>080-084>089-211200-
SOUTHWEST KANSAS

CITY           SKY/WX    TMP DP  RH WIND       PRES   REMARKS
DODGE CITY     MOCLDY    56  52  86 W9        29.99S
ELKHART          N/A     52  43  72 NW9         N/A
GARDEN CITY    CLOUDY    53  52  96 W7        30.00R FOG
GREAT BEND     CLOUDY    54  48  82 CALM      29.99R
LIBERAL        CLOUDY    52  48  87 W3        30.01R VSB 1/4
PRATT          MOCLDY    52  50  93 CALM      30.00R
$$

KSZ066>073-081>083-090>101-211200-
SOUTHEAST KANSAS

CITY           SKY/WX    TMP DP  RH WIND       PRES   REMARKS
CHANUTE        LGT RAIN  60  58  92 CALM      30.01R
COFFEYVILLE    CLOUDY    61  58  90 S7        30.01R
HUTCHINSON     FOG       51  49  92 SE3       29.98R VSB 1/2
MEDICINE LODGE   N/A     54  53  97 CALM      29.97R
NEWTON         CLOUDY    55  50  82 S6        30.02R
PARSONS        CLOUDY    61  57  87 S5        30.02R
WICHITA INTL   CLOUDY    55  54  96 CALM      29.98R FOG
WICHITA JABRA  CLOUDY    56  55  97 S3        29.98S
WICHITA MCCONL CLOUDY    55  55 100 SE6       29.99S
WINFIELD       CLOUDY    59  57  93 SE5       30.00S
$$

KSZ007>012-019>026-033>040-048>060-102>105-211200-
NORTHEAST KANSAS

CITY           SKY/WX    TMP DP  RH WIND       PRES   REMARKS
CONCORDIA      LGT RAIN  58  57  97 NW5       30.00S
EMPORIA        CLOUDY    59  57  93 S10       29.98R FOG
LAWRENCE       CLOUDY    62  57  83 S6        29.97F
MANHATTAN      CLOUDY    60  56  86 SW12      29.97R
OLATHE IND     CLOUDY    60  57  89 S7        29.99F
OLATHE EXE     CLOUDY    60  57  89 S7        29.98S
SALINA         CLOUDY    53  50  89 S5        29.98R
TOPEKA BILLARD CLOUDY    62  56  80 S6        29.97S
TOPEKA FORBES  CLOUDY    60  55  83 S9        29.96F
$$



USA.gov is the U.S. government's official web portal to all federal, state and local government web resources and services.